| time (UTC) | temp C | wind direction | speed KPH | gust KPH | rain 1hr cm | rain 24hr cm | rain mn cm | humidity % | barometer mb |
| 20260505080227 | 35 | 175 | 9.7 | 17.7 | 0.00 | 0.00 | 0.00 | 52 | 1007.5 |
| 20260505075727 | 35 | 166 | 4.8 | 16.1 | 0.00 | 0.00 | 0.00 | 52 | 1007.8 |
| 20260505075227 | 35 | 165 | 9.7 | 12.9 | 0.00 | 0.00 | 0.00 | 51 | 1007.5 |
| 20260505074730 | 35 | 194 | 8.0 | 14.5 | 0.00 | 0.00 | 0.00 | 50 | 1007.5 |
| 20260505074227 | 35 | 211 | 12.9 | 16.1 | 0.00 | 0.00 | 0.00 | 49 | 1007.5 |
| 20260505073727 | 35 | 167 | 4.8 | 12.9 | 0.00 | 0.00 | 0.00 | 49 | 1007.8 |
| 20260505073230 | 35 | 143 | 8.0 | 16.1 | 0.00 | 0.00 | 0.00 | 49 | 1007.8 |
| 20260505072730 | 35 | 219 | 8.0 | 16.1 | 0.00 | 0.00 | 0.00 | 49 | 1008.1 |
| 20260505072229 | 36 | 230 | 6.4 | 9.7 | 0.00 | 0.00 | 0.00 | 47 | 1007.8 |
| 20260505071730 | 36 | 164 | 9.7 | 11.3 | 0.00 | 0.00 | 0.00 | 46 | 1007.8 |
| 20260505071227 | 36 | 243 | 3.2 | 12.9 | 0.00 | 0.00 | 0.00 | 46 | 1007.8 |
| 20260505070730 | 35 | 180 | 11.3 | 16.1 | 0.00 | 0.00 | 0.00 | 46 | 1008.1 |
| 20260505070227 | 35 | 245 | 4.8 | 16.1 | 0.00 | 0.00 | 0.00 | 47 | 1008.1 |
| 20260505065728 | 35 | 195 | 11.3 | 17.7 | 0.00 | 0.00 | 0.00 | 47 | 1008.5 |
| 20260505065227 | 36 | 223 | 4.8 | 12.9 | 0.00 | 0.00 | 0.00 | 47 | 1008.1 |
| 20260505064729 | 36 | 194 | 6.4 | 17.7 | 0.00 | 0.00 | 0.00 | 48 | 1008.5 |
| 20260505064227 | 36 | 158 | 9.7 | 14.5 | 0.00 | 0.00 | 0.00 | 45 | 1008.5 |
| 20260505063727 | 37 | 238 | 4.8 | 9.7 | 0.00 | 0.00 | 0.00 | 42 | 1008.5 |
| 20260505063227 | 37 | 141 | 3.2 | 4.8 | 0.00 | 0.00 | 0.00 | 41 | 1008.5 |
| 20260505062727 | 36 | 206 | 3.2 | 4.8 | 0.00 | 0.00 | 0.00 | 42 | 1008.8 |
| 20260505062228 | 36 | 184 | 8.0 | 12.9 | 0.00 | 0.00 | 0.00 | 42 | 1008.5 |
| 20260505061727 | 36 | 157 | 8.0 | 14.5 | 0.00 | 0.00 | 0.00 | 44 | 1008.5 |
| 20260505061227 | 36 | 181 | 4.8 | 12.9 | 0.00 | 0.00 | 0.00 | 43 | 1008.5 |
| 20260505060728 | 36 | 171 | 4.8 | 8.0 | 0.00 | 0.00 | 0.00 | 43 | 1008.5 |
| 20260505060228 | 36 | 160 | 4.8 | 12.9 | 0.00 | 0.00 | 0.00 | 44 | 1008.8 |
| 20260505055728 | 36 | 196 | 8.0 | 22.5 | 0.00 | 0.00 | 0.00 | 44 | 1008.5 |
| 20260505055227 | 36 | 140 | 8.0 | 12.9 | 0.00 | 0.00 | 0.00 | 44 | 1008.5 |
| 20260505054728 | 35 | 77 | 3.2 | 8.0 | 0.00 | 0.00 | 0.00 | 46 | 1008.8 |
| 20260505054227 | 36 | 188 | 8.0 | 14.5 | 0.00 | 0.00 | 0.00 | 45 | 1008.8 |
| 20260505053727 | 36 | 162 | 4.8 | 11.3 | 0.00 | 0.00 | 0.00 | 46 | 1009.1 |
| 20260505053228 | 35 | 293 | 1.6 | 11.3 | 0.00 | 0.00 | 0.00 | 48 | 1009.1 |
| 20260505052727 | 35 | 211 | 8.0 | 9.7 | 0.00 | 0.00 | 0.00 | 48 | 1009.1 |
| 20260505052228 | 35 | 224 | 4.8 | 12.9 | 0.00 | 0.00 | 0.00 | 45 | 1009.1 |
| 20260505051728 | 35 | 235 | 3.2 | 9.7 | 0.00 | 0.00 | 0.00 | 47 | 1009.1 |
| 20260505051228 | 35 | 123 | 4.8 | 11.3 | 0.00 | 0.00 | 0.00 | 47 | 1009.5 |
| 20260505050727 | 35 | 125 | 4.8 | 8.0 | 0.00 | 0.00 | 0.00 | 50 | 1009.1 |
| 20260505050227 | 35 | 193 | 1.6 | 11.3 | 0.00 | 0.00 | 0.00 | 50 | 1009.5 |
| 20260505041727 | 33 | 166 | 4.8 | 12.9 | 0.00 | 0.00 | 0.00 | 58 | 1009.5 |
| 20260505041227 | 33 | 204 | 4.8 | 12.9 | 0.00 | 0.00 | 0.00 | 59 | 1009.8 |
| 20260505040727 | 33 | 183 | 4.8 | 9.7 | 0.00 | 0.00 | 0.00 | 61 | 1009.5 |
| 20260505040228 | 33 | 192 | 4.8 | 12.9 | 0.00 | 0.00 | 0.00 | 61 | 1009.5 |
| 20260505035728 | 33 | 143 | 4.8 | 12.9 | 0.00 | 0.00 | 0.00 | 59 | 1009.5 |
| 20260505035227 | 33 | 106 | 4.8 | 8.0 | 0.00 | 0.00 | 0.00 | 60 | 1009.8 |
| 20260505034727 | 33 | 174 | 4.8 | 9.7 | 0.00 | 0.00 | 0.00 | 61 | 1009.5 |
| 20260505034228 | 32 | 151 | 0.0 | 3.2 | 0.00 | 0.00 | 0.00 | 64 | 1009.5 |
| 20260505033727 | 33 | 211 | 3.2 | 9.7 | 0.00 | 0.00 | 0.00 | 64 | 1009.5 |
| 20260505033229 | 32 | 229 | 3.2 | 8.0 | 0.00 | 0.00 | 0.00 | 63 | 1009.8 |
| 20260505032727 | 32 | 164 | 1.6 | 9.7 | 0.00 | 0.00 | 0.00 | 67 | 1009.5 |
| 20260505032227 | 32 | 157 | 1.6 | 8.0 | 0.00 | 0.00 | 0.00 | 68 | 1009.5 |
| 20260505031727 | 31 | 89 | 0.0 | 3.2 | 0.00 | 0.00 | 0.00 | 69 | 1009.5 |
| 20260505031227 | 31 | 218 | 0.0 | 3.2 | 0.00 | 0.00 | 0.00 | 70 | 1009.5 |
| 20260505030729 | 31 | 164 | 1.6 | 8.0 | 0.00 | 0.00 | 0.00 | 70 | 1009.5 |
| 20260505030228 | 31 | 100 | 1.6 | 4.8 | 0.00 | 0.00 | 0.00 | 71 | 1009.5 |
| 20260505025727 | 31 | 123 | 0.0 | 3.2 | 0.00 | 0.00 | 0.00 | 73 | 1009.5 |
| 20260505025227 | 31 | 179 | 6.4 | 9.7 | 0.00 | 0.00 | 0.00 | 72 | 1009.5 |
| 20260505024727 | 31 | 116 | 0.0 | 3.2 | 0.00 | 0.00 | 0.00 | 73 | 1009.1 |
| 20260505024227 | 31 | 80 | 1.6 | 3.2 | 0.00 | 0.00 | 0.00 | 74 | 1009.5 |
| 20260505023727 | 31 | 98 | 1.6 | 4.8 | 0.00 | 0.00 | 0.00 | 74 | 1009.5 |
| 20260505023227 | 31 | 84 | 1.6 | 1.6 | 0.00 | 0.00 | 0.00 | 76 | 1009.5 |
| 20260505022728 | 31 | 119 | 1.6 | 3.2 | 0.00 | 0.00 | 0.00 | 76 | 1009.5 |
| 20260505022228 | 30 | 194 | 3.2 | 8.0 | 0.00 | 0.00 | 0.00 | 77 | 1009.1 |
| 20260505021727 | 30 | 101 | 3.2 | 4.8 | 0.00 | 0.00 | 0.00 | 78 | 1009.1 |
| 20260505021230 | 30 | 92 | 1.6 | 1.6 | 0.00 | 0.00 | 0.00 | 80 | 1009.1 |
| 20260505020730 | 30 | 99 | 1.6 | 4.8 | 0.00 | 0.00 | 0.00 | 81 | 1008.8 |
| 20260505020228 | 30 | 101 | 0.0 | 3.2 | 0.00 | 0.00 | 0.00 | 82 | 1008.5 |
| 20260505015727 | 30 | 107 | 1.6 | 4.8 | 0.00 | 0.00 | 0.00 | 82 | 1008.8 |
| 20260505015227 | 30 | 87 | 1.6 | 3.2 | 0.00 | 0.00 | 0.00 | 83 | 1008.5 |
| 20260505014727 | 29 | 98 | 1.6 | 4.8 | 0.00 | 0.00 | 0.00 | 83 | 1008.5 |
| 20260505014227 | 29 | 105 | 0.0 | 3.2 | 0.00 | 0.00 | 0.00 | 83 | 1008.5 |
| 20260505013727 | 29 | 84 | 0.0 | 4.8 | 0.00 | 0.00 | 0.00 | 83 | 1008.8 |
| 20260505013228 | 29 | 114 | 1.6 | 3.2 | 0.00 | 0.00 | 0.00 | 83 | 1008.5 |
| 20260505012728 | 29 | 110 | 1.6 | 1.6 | 0.00 | 0.00 | 0.00 | 83 | 1008.5 |
| 20260505012227 | 29 | 133 | 0.0 | 3.2 | 0.00 | 0.00 | 0.00 | 84 | 1008.5 |
| 20260505011728 | 29 | 102 | 1.6 | 3.2 | 0.00 | 0.00 | 0.00 | 84 | 1008.1 |
| 20260505011227 | 29 | 150 | 1.6 | 4.8 | 0.00 | 0.00 | 0.00 | 84 | 1008.1 |
| 20260505010727 | 28 | 109 | 1.6 | 1.6 | 0.00 | 0.00 | 0.00 | 84 | 1008.1 |
| 20260505010229 | 28 | 107 | 0.0 | 3.2 | 0.00 | 0.00 | 0.00 | 85 | 1008.1 |
| 20260505005727 | 28 | 99 | 1.6 | 3.2 | 0.00 | 0.00 | 0.00 | 85 | 1008.1 |
| 20260505005228 | 28 | 83 | 0.0 | 1.6 | 0.00 | 0.00 | 0.00 | 86 | 1008.1 |
| 20260505004727 | 28 | 84 | 3.2 | 4.8 | 0.00 | 0.00 | 0.00 | 86 | 1007.8 |
| 20260505004227 | 28 | 102 | 1.6 | 3.2 | 0.00 | 0.00 | 0.00 | 87 | 1008.1 |
| 20260505003727 | 27 | 106 | 0.0 | 1.6 | 0.00 | 0.00 | 0.00 | 87 | 1007.8 |
| 20260505003229 | 27 | 108 | 1.6 | 4.8 | 0.00 | 0.00 | 0.00 | 87 | 1007.8 |
| 20260505002727 | 27 | 118 | 1.6 | 3.2 | 0.00 | 0.00 | 0.00 | 87 | 1007.8 |
| 20260505002227 | 27 | 119 | 0.0 | 1.6 | 0.00 | 0.00 | 0.00 | 87 | 1007.8 |
| 20260505001727 | 27 | 121 | 0.0 | 1.6 | 0.00 | 0.00 | 0.00 | 86 | 1007.8 |
| 20260505001228 | 27 | 121 | 0.0 | 3.2 | 0.00 | 0.00 | 0.00 | 86 | 1007.8 |
| 20260505000728 | 28 | 153 | 0.0 | 0.0 | 0.00 | 0.00 | 0.00 | 86 | 1007.8 |
| 20260505000227 | 27 | 157 | 0.0 | 0.0 | 0.00 | 0.00 | 0.00 | 86 | 1007.5 |
| 20260504235728 | 27 | 158 | 0.0 | 0.0 | 0.00 | 0.00 | 0.00 | 87 | 1007.8 |
| 20260504235227 | 27 | 158 | 0.0 | 0.0 | 0.00 | 0.00 | 0.00 | 87 | 1007.8 |
| 20260504234727 | 27 | 158 | 1.6 | 1.6 | 0.00 | 0.00 | 0.00 | 87 | 1007.5 |
| 20260504234228 | 27 | 157 | 0.0 | 1.6 | 0.00 | 0.00 | 0.00 | 87 | 1007.5 |
| 20260504233727 | 27 | 147 | 0.0 | 1.6 | 0.00 | 0.00 | 0.00 | 87 | 1007.5 |
| 20260504233228 | 27 | 156 | 0.0 | 0.0 | 0.00 | 0.00 | 0.00 | 87 | 1007.5 |
| 20260504232727 | 27 | 158 | 1.6 | 1.6 | 0.00 | 0.00 | 0.00 | 87 | 1007.5 |
| 20260504232228 | 27 | 119 | 0.0 | 0.0 | 0.00 | 0.00 | 0.00 | 87 | 1007.5 |
| 20260504231728 | 27 | 119 | 1.6 | 1.6 | 0.00 | 0.00 | 0.00 | 87 | 1007.5 |
| 20260504231227 | 27 | 144 | 1.6 | 1.6 | 0.00 | 0.00 | 0.00 | 87 | 1007.5 |
| 20260504230728 | 27 | 144 | 0.0 | 0.0 | 0.00 | 0.00 | 0.00 | 87 | 1007.5 |
| 20260504230227 | 28 | 144 | 0.0 | 0.0 | 0.00 | 0.00 | 0.00 | 86 | 1007.5 |
| 20260504225728 | 28 | 144 | 1.6 | 3.2 | 0.00 | 0.00 | 0.00 | 86 | 1007.5 |
| 20260504225228 | 28 | 163 | 0.0 | 0.0 | 0.00 | 0.00 | 0.00 | 86 | 1007.5 |
| 20260504224731 | 28 | 163 | 0.0 | 0.0 | 0.00 | 0.00 | 0.00 | 86 | 1007.5 |
| 20260504224228 | 28 | 163 | 0.0 | 0.0 | 0.00 | 0.00 | 0.00 | 86 | 1007.1 |
| 20260504223727 | 28 | 163 | 0.0 | 0.0 | 0.00 | 0.00 | 0.00 | 86 | 1007.1 |
| 20260504223228 | 28 | 163 | 0.0 | 0.0 | 0.00 | 0.00 | 0.00 | 86 | 1007.5 |
| 20260504222727 | 28 | 165 | 0.0 | 1.6 | 0.00 | 0.00 | 0.00 | 86 | 1007.5 |
| 20260504222230 | 28 | 165 | 0.0 | 0.0 | 0.00 | 0.00 | 0.00 | 86 | 1007.1 |
| 20260504221728 | 28 | 165 | 0.0 | 0.0 | 0.00 | 0.00 | 0.00 | 85 | 1007.5 |
| 20260504221229 | 28 | 165 | 0.0 | 0.0 | 0.00 | 0.00 | 0.00 | 85 | 1007.5 |
| 20260504220727 | 28 | 165 | 0.0 | 1.6 | 0.00 | 0.00 | 0.00 | 85 | 1007.5 |
| 20260504220227 | 28 | 164 | 0.0 | 0.0 | 0.00 | 0.00 | 0.00 | 85 | 1007.1 |
| 20260504215729 | 28 | 165 | 1.6 | 1.6 | 0.00 | 0.00 | 0.00 | 85 | 1007.5 |
| 20260504215227 | 28 | 168 | 1.6 | 3.2 | 0.00 | 0.00 | 0.00 | 85 | 1007.5 |
| 20260504214728 | 28 | 167 | 3.2 | 4.8 | 0.00 | 0.00 | 0.00 | 85 | 1007.1 |
| 20260504214227 | 28 | 186 | 1.6 | 4.8 | 0.00 | 0.00 | 0.00 | 85 | 1007.5 |
| 20260504213728 | 28 | 169 | 1.6 | 4.8 | 0.00 | 0.00 | 0.00 | 85 | 1007.1 |
| 20260504213228 | 28 | 211 | 1.6 | 4.8 | 0.00 | 0.00 | 0.00 | 85 | 1007.5 |
| 20260504212727 | 28 | 158 | 1.6 | 4.8 | 0.00 | 0.00 | 0.00 | 85 | 1007.5 |
| 20260504212229 | 28 | 162 | 3.2 | 3.2 | 0.00 | 0.00 | 0.00 | 85 | 1007.5 |
| 20260504211727 | 28 | 163 | 3.2 | 4.8 | 0.00 | 0.00 | 0.00 | 85 | 1007.5 |
| 20260504211232 | 28 | 191 | 1.6 | 4.8 | 0.00 | 0.00 | 0.00 | 85 | 1007.5 |
| 20260504210727 | 28 | 122 | 1.6 | 4.8 | 0.00 | 0.00 | 0.00 | 85 | 1007.1 |
| 20260504210229 | 28 | 184 | 0.0 | 1.6 | 0.00 | 0.00 | 0.00 | 85 | 1007.5 |
| 20260504205728 | 28 | 156 | 3.2 | 8.0 | 0.00 | 0.00 | 0.00 | 85 | 1007.1 |
| 20260504205228 | 28 | 156 | 4.8 | 8.0 | 0.00 | 0.00 | 0.00 | 85 | 1007.1 |
| 20260504204730 | 28 | 186 | 4.8 | 4.8 | 0.00 | 0.00 | 0.00 | 85 | 1007.5 |
| 20260504204227 | 28 | 141 | 1.6 | 8.0 | 0.00 | 0.00 | 0.00 | 85 | 1007.5 |
| 20260504203727 | 28 | 168 | 4.8 | 8.0 | 0.00 | 0.00 | 0.00 | 85 | 1007.5 |
| 20260504203229 | 28 | 142 | 1.6 | 8.0 | 0.00 | 0.00 | 0.00 | 85 | 1007.5 |
| 20260504202727 | 28 | 177 | 1.6 | 8.0 | 0.00 | 0.00 | 0.00 | 85 | 1007.5 |
| 20260504202231 | 28 | 165 | 1.6 | 8.0 | 0.00 | 0.00 | 0.00 | 85 | 1007.5 |
| 20260504201728 | 28 | 110 | 3.2 | 8.0 | 0.00 | 0.00 | 0.00 | 85 | 1007.5 |
| 20260504201227 | 28 | 193 | 3.2 | 4.8 | 0.00 | 0.00 | 0.00 | 84 | 1007.5 |
| 20260504200729 | 28 | 184 | 0.0 | 4.8 | 0.00 | 0.00 | 0.00 | 84 | 1007.5 |
| 20260504200229 | 28 | 153 | 1.6 | 8.0 | 0.00 | 0.00 | 0.00 | 84 | 1007.8 |
| 20260504195731 | 28 | 183 | 3.2 | 8.0 | 0.00 | 0.00 | 0.00 | 84 | 1007.8 |
| 20260504195228 | 28 | 193 | 3.2 | 4.8 | 0.00 | 0.00 | 0.00 | 84 | 1007.8 |
| 20260504194727 | 28 | 222 | 1.6 | 3.2 | 0.00 | 0.00 | 0.00 | 84 | 1007.8 |
| 20260504194228 | 28 | 164 | 1.6 | 8.0 | 0.00 | 0.00 | 0.00 | 84 | 1007.5 |
| 20260504193727 | 28 | 154 | 6.4 | 8.0 | 0.00 | 0.00 | 0.00 | 84 | 1007.8 |
| 20260504193227 | 28 | 169 | 4.8 | 4.8 | 0.00 | 0.00 | 0.00 | 84 | 1007.8 |
| 20260504192727 | 28 | 167 | 3.2 | 4.8 | 0.00 | 0.00 | 0.00 | 84 | 1007.5 |
| 20260504192227 | 28 | 186 | 1.6 | 4.8 | 0.00 | 0.00 | 0.00 | 83 | 1007.5 |
| 20260504191727 | 28 | 168 | 0.0 | 1.6 | 0.00 | 0.00 | 0.00 | 83 | 1007.5 |
| 20260504191227 | 28 | 171 | 0.0 | 3.2 | 0.00 | 0.00 | 0.00 | 84 | 1007.5 |
| 20260504190729 | 28 | 198 | 4.8 | 9.7 | 0.00 | 0.00 | 0.00 | 83 | 1007.5 |
| 20260504190228 | 28 | 206 | 0.0 | 3.2 | 0.00 | 0.00 | 0.00 | 83 | 1007.8 |
| 20260504185727 | 28 | 112 | 1.6 | 3.2 | 0.00 | 0.00 | 0.00 | 83 | 1007.5 |
| 20260504185231 | 28 | 118 | 0.0 | 1.6 | 0.00 | 0.00 | 0.00 | 83 | 1007.5 |
| 20260504184728 | 28 | 105 | 0.0 | 3.2 | 0.00 | 0.00 | 0.00 | 82 | 1007.5 |
| 20260504184229 | 28 | 99 | 0.0 | 1.6 | 0.00 | 0.00 | 0.00 | 82 | 1007.5 |
| 20260504183727 | 28 | 100 | 1.6 | 4.8 | 0.00 | 0.00 | 0.00 | 83 | 1007.5 |
| 20260504183228 | 28 | 157 | 3.2 | 4.8 | 0.00 | 0.00 | 0.00 | 83 | 1007.8 |
| 20260504182730 | 28 | 114 | 0.0 | 1.6 | 0.00 | 0.00 | 0.00 | 82 | 1007.5 |
| 20260504182229 | 29 | 202 | 1.6 | 3.2 | 0.00 | 0.00 | 0.00 | 82 | 1007.5 |
| 20260504181729 | 29 | 148 | 0.0 | 3.2 | 0.00 | 0.00 | 0.00 | 82 | 1007.5 |
| 20260504181227 | 28 | 91 | 0.0 | 3.2 | 0.00 | 0.00 | 0.00 | 82 | 1007.5 |
| 20260504180729 | 29 | 165 | 4.8 | 8.0 | 0.00 | 0.00 | 0.00 | 82 | 1007.8 |
| 20260504180228 | 29 | 196 | 1.6 | 3.2 | 0.00 | 0.00 | 0.00 | 82 | 1007.8 |
| 20260504175729 | 29 | 167 | 1.6 | 1.6 | 0.00 | 0.00 | 0.00 | 82 | 1007.8 |
| 20260504175227 | 29 | 136 | 0.0 | 1.6 | 0.00 | 0.00 | 0.00 | 82 | 1007.8 |
| 20260504174727 | 29 | 137 | 1.6 | 1.6 | 0.00 | 0.00 | 0.00 | 82 | 1007.8 |
| 20260504174228 | 29 | 164 | 0.0 | 3.2 | 0.00 | 0.00 | 0.00 | 82 | 1007.8 |
| 20260504173727 | 29 | 184 | 1.6 | 4.8 | 0.00 | 0.00 | 0.00 | 82 | 1007.8 |
| 20260504173227 | 29 | 196 | 1.6 | 4.8 | 0.00 | 0.00 | 0.00 | 82 | 1007.8 |
| 20260504172728 | 29 | 175 | 3.2 | 8.0 | 0.00 | 0.00 | 0.00 | 82 | 1008.1 |
| 20260504172229 | 29 | 167 | 4.8 | 4.8 | 0.00 | 0.00 | 0.00 | 82 | 1008.1 |
| 20260504171727 | 29 | 163 | 1.6 | 3.2 | 0.00 | 0.00 | 0.00 | 82 | 1008.1 |
| 20260504171231 | 29 | 172 | 1.6 | 3.2 | 0.00 | 0.00 | 0.00 | 81 | 1007.8 |
| 20260504170731 | 29 | 191 | 1.6 | 3.2 | 0.00 | 0.00 | 0.00 | 81 | 1007.8 |
| 20260504170230 | 29 | 143 | 1.6 | 8.0 | 0.00 | 0.00 | 0.00 | 81 | 1007.8 |
| 20260504160229 | 29 | 130 | 3.2 | 3.2 | 0.00 | 0.00 | 0.00 | 81 | 1007.1 |
| 20260504150727 | 30 | 84 | 4.8 | 8.0 | 0.00 | 0.00 | 0.00 | 76 | 1006.1 |
| 20260504150228 | 30 | 85 | 0.0 | 3.2 | 0.00 | 0.00 | 0.00 | 75 | 1006.1 |
| 20260504141230 | 30 | 102 | 0.0 | 4.8 | 0.00 | 0.00 | 0.00 | 72 | 1005.8 |
| 20260504140727 | 30 | 123 | 1.6 | 3.2 | 0.00 | 0.00 | 0.00 | 72 | 1005.4 |
| 20260504140228 | 30 | 75 | 0.0 | 4.8 | 0.00 | 0.00 | 0.00 | 72 | 1005.1 |
| 20260504130727 | 30 | 102 | 4.8 | 8.0 | 0.00 | 0.00 | 0.00 | 69 | 1004.7 |
| 20260504130230 | 31 | 101 | 4.8 | 11.3 | 0.00 | 0.00 | 0.00 | 69 | 1004.4 |
| 20260504120228 | 32 | 125 | 1.6 | 16.1 | 0.00 | 0.00 | 0.00 | 63 | 1004.1 |
| 20260504110227 | 33 | 214 | 11.3 | 12.9 | 0.00 | 0.00 | 0.00 | 54 | 1004.1 |
| 20260504100229 | 36 | 168 | 6.4 | 12.9 | 0.00 | 0.00 | 0.00 | 47 | 1004.4 |
| 20260504081730 | 37 | 195 | 4.8 | 9.7 | 0.00 | 0.00 | 0.00 | 42 | 1005.8 |
| 20260504081227 | 37 | 187 | 4.8 | 8.0 | 0.00 | 0.00 | 0.00 | 42 | 1005.8 |
| 20260504080727 | 37 | 243 | 4.8 | 12.9 | 0.00 | 0.00 | 0.00 | 39 | 1005.8 |